This demonstration page uses our WeatherBlox Daily Observations layout. Learn more.

Hourly Observations for December 21, 2018

Temp ( °F °C ) Dew Point ( °F °C ) Humidity (%) Winds ( mph kmh ) Pressure ( in mb ) Visibility ( mi km ) Precip ( " mm )
12:15 am 00:15 Cloudy with Light Drizzle 55 13 55 13 100 100 SE 13 20 29.41 996 7 11.265408 0 0
12:35 am 00:35 Cloudy with Drizzle 57 14 57 14 100 100 SSE 15 24 29.41 996 7 11.265408 0.01 0.254
12:55 am 00:55 Cloudy with Rain 59 15 59 15 100 100 SSE 13 20 29.41 996 5 8.04672 0.06 1.524
1:15 am 01:15 Cloudy 59 15 59 15 100 100 SSE 17 28 29.41 996 10 16.09344 0 0
1:35 am 01:35 Cloudy with Light Rain 59 15 59 15 100 100 SSE 17 28 29.41 996 10 16.09344 0 0
1:55 am 01:55 Cloudy 59 15 59 15 100 100 SSE 18 30 29.41 996 10 16.09344 0 0
2:15 am 02:15 Cloudy with Light Rain 59 15 59 15 100 100 SSE 15 24 29.41 996 10 16.09344 0.01 0.254
2:35 am 02:35 Cloudy with Light Rain 59 15 59 15 100 100 S 12 19 29.41 996 7 11.265408 0.01 0.254
2:55 am 02:55 Cloudy with Heavy Rain 59 15 59 15 100 100 SSW 12 19 29.41 996 5 8.04672 0.07 1.778
3:15 am 03:15 Cloudy with Light Rain 59 15 59 15 100 100 S 6 9 29.41 996 7 11.265408 0.01 0.254
3:35 am 03:35 Cloudy with Rain 59 15 59 15 100 100 S 8 13 29.41 996 5 8.04672 0.04 1.016
3:55 am 03:55 Cloudy with Light Rain 59 15 59 15 100 100 S 9 15 29.38 995 10 16.09344 0.08 2.032
4:15 am 04:15 Cloudy with Light Rain 57 14 57 14 100 100 S 12 19 29.38 995 10 16.09344 0 0
4:35 am 04:35 Cloudy with Light Rain 57 14 57 14 100 100 S 7 11 29.38 995 10 16.09344 0.01 0.254
4:55 am 04:55 Cloudy with Light Rain 55 13 55 13 100 100 S 9 15 29.38 995 10 16.09344 0.02 0.508
5:15 am 05:15 Cloudy 55 13 55 13 100 100 S 9 15 29.38 995 10 16.09344 0 0
5:35 am 05:35 Cloudy with Light Rain 55 13 55 13 100 100 S 6 9 29.38 995 10 16.09344 0 0
5:55 am 05:55 Cloudy with Rain 55 13 55 13 100 100 S 5 7 29.38 995 10 16.09344 0.01 0.254
6:15 am 06:15 Cloudy with Light Rain 55 13 55 13 100 100 SSE 8 13 29.38 995 10 16.09344 0 0
6:35 am 06:35 Cloudy with Light Rain 55 13 55 13 100 100 S 8 13 29.35 994 5 8.04672 0.02 0.508
7:15 am 07:15 Cloudy 55 13 55 13 100 100 SSW 6 9 29.38 995 10 16.09344 0 0
7:35 am 07:35 Cloudy 55 13 55 13 100 100 S 5 7 29.38 995 10 16.09344 0 0
7:55 am 07:55 Cloudy with Light Drizzle 57 14 57 14 100 100 S 5 7 29.38 995 10 16.09344 0 0
8:15 am 08:15 Cloudy 59 15 59 15 100 100 S 8 13 29.35 994 10 16.09344 0 0
8:35 am 08:35 Mostly Cloudy 59 15 59 15 100 100 SSE 8 13 29.35 994 10 16.09344 0 0
8:55 am 08:55 Mostly Cloudy 59 15 59 15 100 100 S 9 15 29.35 994 10 16.09344 0 0
9:15 am 09:15 Cloudy 59 15 59 15 100 100 SSE 9 15 29.35 994 10 16.09344 0 0
9:35 am 09:35 Cloudy 59 15 59 15 100 100 S 9 15 29.35 994 10 16.09344 0 0
9:55 am 09:55 Cloudy 61 16 61 16 100 100 S 8 13 29.35 994 10 16.09344 0 0
10:15 am 10:15 Cloudy 61 16 61 16 100 100 SSE 12 19 29.35 994 10 16.09344 0 0
10:35 am 10:35 Cloudy 61 16 61 16 100 100 S 13 20 29.32 993 10 16.09344 0 0
10:55 am 10:55 Cloudy 61 16 59 15 94 94 SSE 13 20 29.32 993 10 16.09344 0 0
11:15 am 11:15 Cloudy 61 16 59 15 94 94 SSE 15 24 29.29 992 10 16.09344 0 0
11:35 am 11:35 Cloudy 63 17 59 15 88 88 SSE 17 28 29.26 991 10 16.09344 0 0
12:15 pm 12:15 Cloudy 63 17 59 15 88 88 SSE 15 24 29.23 990 10 16.09344 0 0
12:35 pm 12:35 Cloudy 64 18 55 13 73 73 S 14 22 29.23 990 10 16.09344 0 0
12:55 pm 12:55 Partly Cloudy 64 18 55 13 73 73 SSE 16 26 29.21 989 10 16.09344 0 0
1:15 pm 13:15 Partly Cloudy 64 18 55 13 73 73 SSE 18 30 29.21 989 10 16.09344 0 0
1:35 pm 13:35 Cloudy 64 18 55 13 73 73 SSE 15 24 29.18 988 10 16.09344 0 0
1:55 pm 13:55 Cloudy with Heavy Rain 63 17 57 14 83 83 SSE 14 22 29.18 988 7 11.265408 0.01 0.254
2:15 pm 14:15 Cloudy with Light Rain 61 16 59 15 94 94 SSE 8 13 29.18 988 10 16.09344 0.01 0.254
2:35 pm 14:35 Cloudy 63 17 57 14 83 83 SSE 10 17 29.18 988 10 16.09344 0.01 0.254
2:55 pm 14:55 Mostly Cloudy 63 17 57 14 83 83 SSE 10 17 29.18 988 10 16.09344 0.01 0.254
3:15 pm 15:15 Mostly Cloudy 63 17 55 13 77 77 SSE 16 26 29.15 987 10 16.09344 0 0
3:35 pm 15:35 Mostly Cloudy 63 17 55 13 77 77 S 17 28 29.18 988 10 16.09344 0 0
3:55 pm 15:55 Cloudy 63 17 54 12 73 73 SE 8 13 29.18 988 10 16.09344 0 0
4:15 pm 16:15 Cloudy 63 17 55 13 77 77 S 10 17 29.18 988 10 16.09344 0 0
4:35 pm 16:35 Cloudy with Light Rain 55 13 52 11 88 88 S 15 24 29.18 988 7 11.265408 0.06 1.524
4:55 pm 16:55 Mostly Cloudy 55 13 52 11 88 88 S 13 20 29.18 988 10 16.09344 0.07 1.778
5:15 pm 17:15 Clear 54 12 52 11 94 94 S 12 19 29.18 988 10 16.09344 0 0
5:35 pm 17:35 Clear 54 12 52 11 94 94 SSW 9 15 29.18 988 10 16.09344 0 0
5:55 pm 17:55 Clear 54 12 52 11 94 94 SSW 7 11 29.18 988 10 16.09344 0 0
6:15 pm 18:15 Mostly Cloudy 54 12 52 11 94 94 S 8 13 29.18 988 10 16.09344 0 0
6:35 pm 18:35 Mostly Cloudy 54 12 52 11 94 94 SSE 7 11 29.18 988 10 16.09344 0 0
6:55 pm 18:55 Clear 52 11 52 11 100 100 S 5 7 29.21 989 10 16.09344 0 0
7:15 pm 19:15 Partly Cloudy 52 11 50 10 94 94 S 6 9 29.21 989 10 16.09344 0 0
7:35 pm 19:35 Cloudy with Heavy Rain 52 11 52 11 100 100 SSW 15 24 29.23 990 7 11.265408 0.04 1.016
7:55 pm 19:55 Cloudy with Light Rain 54 12 52 11 94 94 SW 10 17 29.21 989 10 16.09344 0.06 1.524
8:15 pm 20:15 Mostly Cloudy 54 12 52 11 94 94 SW 7 11 29.21 989 10 16.09344 0.01 0.254
8:35 pm 20:35 Partly Cloudy 52 11 52 11 100 100 S 7 11 29.21 989 10 16.09344 0.01 0.254
8:55 pm 20:55 Clear 50 10 50 10 100 100 SW 5 7 29.21 989 10 16.09344 0.02 0.508
9:15 pm 21:15 Mostly Cloudy 50 10 50 10 100 100 WNW 20 31 29.23 990 10 16.09344 0 0
9:35 pm 21:35 Cloudy 48 9 45 7 87 87 NW 15 24 29.23 990 10 16.09344 0 0
9:55 pm 21:55 Cloudy 46 8 43 6 87 87 WNW 17 28 29.26 991 10 16.09344 0 0
10:15 pm 22:15 Cloudy with Rain 45 7 43 6 93 93 WNW 17 28 29.26 991 10 16.09344 0 0
10:35 pm 22:35 Cloudy with Rain 43 6 41 5 93 93 NW 18 30 29.29 992 7 11.265408 0.01 0.254
10:55 pm 22:55 Cloudy with Light Drizzle 43 6 41 5 93 93 NW 20 31 29.29 992 10 16.09344 0.01 0.254
11:15 pm 23:15 Cloudy 43 6 41 5 93 93 NW 18 30 29.32 993 10 16.09344 0 0
11:35 pm 23:35 Cloudy with Light Rain 43 6 41 5 93 93 NW 20 31 29.32 993 10 16.09344 0 0
11:55 pm 23:55 Cloudy with Light Rain 41 5 41 5 100 100 NW 17 28 29.35 994 10 16.09344 0.01 0.254

Powered by AerisWeather